Vorticity
6 7 7 6 17 21 13 5 3 9 -3 6 23 12 13 5 3 11 10 9 2 5 6 5 3 4 6 3 9 6 5 9 6 5 5 5 4 7 6 4 5 5 5 5 7 7 7 7 7 9 7 6 7 8 7 7 7 7 7 8 8 7 8 7 7 6 5 5 4 5 5 7 7 7 6 6 6 5 5 4 4 5 5 6 6 5 5 6 5 5 4 4 4 5 5 5 5
7 5 10 9 3 9 11 2 2 9 -5 7 21 15 8 -4 15 13 6 16 3 8 7 3 4 3 5 3 7 5 6 7 3 3 6 6 4 6 6 7 7 4 6 5 7 7 7 8 8 8 5 5 7 8 7 7 7 8 8 8 8 8 9 7 7 7 6 6 5 5 5 6 7 7 7 6 6 5 6 5 5 4 5 5 6 6 5 5 5 5 4 4 4 5 5 6 7
6 4 6 2 -1 7 13 7 -0 1 -1 7 10 9 4 -3 21 10 0 18 6 6 5 1 3 2 5 4 5 5 5 4 3 5 7 5 4 6 5 8 5 3 6 7 8 6 7 8 8 6 4 6 8 8 6 7 8 8 8 8 9 9 9 8 8 7 7 7 6 5 5 5 6 8 7 7 7 6 6 6 6 4 5 5 5 6 5 4 4 5 4 4 3 3 5 5 7
4 2 3 0 -3 1 7 11 6 3 5 9 3 3 10 4 10 6 2 8 3 5 4 2 3 3 5 5 5 3 4 4 4 6 8 6 6 7 6 7 4 5 8 8 8 6 8 8 7 5 5 7 7 7 7 8 8 8 8 8 9 8 8 7 7 7 7 7 7 6 5 5 5 6 7 8 7 7 7 7 6 6 6 4 5 5 6 5 4 4 4 5 4 4 4 4 4
4 1 6 4 -8 -1 9 8 8 5 5 10 5 2 7 5 3 5 4 3 4 4 2 3 3 5 5 4 4 3 4 5 4 5 9 7 6 9 7 6 4 6 8 8 7 7 8 7 7 5 6 7 7 7 8 8 8 9 8 8 8 7 7 6 7 7 7 7 7 7 7 6 5 5 5 7 7 8 8 7 6 6 6 5 5 5 5 5 4 3 3 4 4 4 3 3 3
2 -1 5 5 -9 2 14 7 5 3 3 8 6 4 3 2 4 3 3 4 5 4 4 5 4 5 6 5 3 3 4 4 4 5 8 5 6 9 8 7 5 6 8 7 7 7 7 7 7 5 6 7 7 7 8 9 8 8 7 7 6 6 7 6 7 7 7 6 6 7 7 7 7 6 5 5 6 7 8 8 7 6 6 5 5 5 6 5 5 4 3 3 2 3 3 3 2
-2 -5 7 9 -0 2 8 7 4 2 6 7 5 4 2 3 3 2 5 5 4 5 5 5 5 6 6 6 3 3 4 3 4 6 6 5 7 7 9 9 4 6 8 8 8 6 7 8 7 6 7 6 7 8 9 9 7 8 7 6 6 6 7 7 8 8 8 7 6 6 6 6 7 7 6 6 5 5 7 8 8 8 7 6 5 5 5 5 5 5 4 4 3 3 3 2 2
-3 -3 11 4 2 6 5 8 4 3 6 5 5 4 3 3 3 4 3 4 6 6 6 5 5 8 6 4 3 4 4 4 3 6 6 5 8 5 8 8 4 8 7 7 7 6 8 8 7 6 6 7 8 8 9 8 7 8 6 6 6 7 8 8 9 9 9 8 8 7 7 6 6 7 7 6 6 6 6 7 8 9 8 7 6 5 4 5 5 5 5 5 4 4 3 3 3
1 0 7 -3 -2 4 2 6 5 5 4 3 4 3 4 4 4 6 2 4 5 4 6 5 5 8 7 5 5 4 5 5 3 5 6 3 8 6 6 9 8 9 7 7 7 7 9 7 7 6 6 7 7 8 8 7 7 7 6 6 6 7 8 9 10 10 11 10 11 9 9 8 6 6 6 6 6 6 7 6 7 8 10 9 8 6 5 5 5 5 5 5 5 5 5 4 4
3 1 3 2 3 3 2 4 5 6 5 5 5 3 4 3 5 4 4 4 3 4 4 3 6 7 5 6 5 5 7 6 4 5 5 3 7 7 5 8 9 9 8 8 7 7 8 7 7 6 7 7 7 8 7 7 7 7 6 5 6 8 8 9 10 9 10 11 13 12 10 9 8 7 6 5 5 5 6 6 7 7 8 9 10 10 9 7 6 6 5 5 5 5 5 5 5
2 4 -0 -1 9 7 2 4 6 7 4 4 5 5 5 4 5 4 5 4 4 4 3 7 9 7 6 6 4 6 8 6 5 4 4 4 6 7 5 7 9 9 9 9 6 6 7 7 7 6 7 7 7 8 7 8 7 6 6 6 7 7 8 9 9 9 10 11 12 13 12 11 9 8 7 6 5 4 4 5 5 5 5 6 8 9 10 10 9 9 8 7 6 5 5 5 5
1 6 -3 -5 16 11 3 5 4 7 5 5 5 6 7 7 6 6 8 6 7 5 7 13 9 8 9 6 5 6 8 6 4 4 5 4 4 5 6 7 9 8 8 9 7 6 7 6 6 6 6 7 7 7 7 7 7 6 5 6 7 7 8 8 8 9 9 10 11 11 12 12 11 10 9 8 7 6 5 6 5 5 5 5 5 6 7 9 10 10 11 10 10 9 8 7 7
3 6 -2 -3 13 6 5 9 3 8 6 4 7 5 5 7 7 6 8 7 9 8 8 10 5 9 8 6 8 7 6 6 5 4 4 4 4 5 5 7 10 8 7 9 7 5 7 6 6 6 6 7 7 7 7 7 6 5 6 7 7 8 8 8 8 8 8 9 9 10 10 11 11 11 10 10 9 9 8 8 8 8 7 7 7 7 7 7 8 8 9 10 10 10 10 10 9
4 3 -0 -0 8 1 6 11 5 8 6 4 6 8 6 4 6 5 6 9 10 10 9 6 6 7 5 6 6 4 6 8 8 4 3 4 3 4 5 8 10 8 7 9 8 6 5 5 6 6 6 7 6 7 7 7 6 5 7 7 7 8 8 8 8 8 9 9 9 10 10 11 11 10 10 10 10 9 10 10 10 10 10 10 10 10 10 10 10 10 11 10 10 10 10 11 10
1 1 2 3 7 2 2 8 7 5 6 6 4 7 9 4 4 5 4 7 6 5 6 6 7 4 4 8 3 3 6 7 9 6 4 4 1 3 5 8 9 8 8 8 9 7 4 4 5 6 6 6 7 6 6 7 6 6 7 6 7 7 7 7 6 7 7 8 9 9 9 10 10 11 11 11 12 11 11 11 11 12 12 12 12 12 12 12 12 12 12 12 12 12 12 13 13
1 1 4 5 6 5 2 4 5 6 8 8 7 7 7 7 6 6 4 3 3 5 5 5 6 4 7 10 5 6 6 5 9 7 6 6 3 2 4 8 9 9 9 7 7 7 5 4 5 6 6 6 6 6 6 6 6 6 6 6 6 6 6 5 5 5 5 5 6 6 7 8 8 9 9 9 9 9 8 9 9 9 10 10 9 9 9 9 9 9 9 9 9 10 11 11 13
2 2 4 4 1 9 10 6 4 4 9 7 9 8 5 9 9 8 7 4 4 7 5 4 6 5 8 11 10 9 7 5 8 7 7 8 6 2 4 8 8 8 10 8 6 7 6 5 5 5 7 6 6 6 7 6 6 6 5 6 5 5 5 4 4 4 5 5 5 5 4 4 5 4 6 6 6 7 7 7 6 6 6 6 6 5 6 6 6 7 6 7 7 8 8 8 9
2 2 5 1 -4 11 8 4 7 0 6 8 7 8 5 8 10 9 9 9 8 9 9 7 8 7 7 9 9 10 9 6 7 8 8 9 7 3 5 7 9 8 9 8 6 6 5 5 5 4 6 6 6 6 6 6 6 6 5 5 5 4 4 4 5 4 5 5 5 6 5 4 4 3 5 5 5 6 5 6 5 5 6 5 5 5 6 6 6 7 7 7 7 7 7 8 8
5 -0 6 1 -8 13 9 0 8 1 2 5 3 6 5 6 9 9 7 10 10 10 12 10 9 7 6 6 5 8 9 7 7 7 8 11 7 3 6 8 9 9 8 7 5 6 5 6 7 5 5 5 5 6 6 6 5 5 5 5 5 4 4 4 4 4 5 5 6 7 7 8 8 6 6 6 6 6 5 5 5 5 6 6 6 7 7 7 7 7 7 7 8 8 7 9 8
6 -0 8 2 -14 5 13 6 6 1 1 3 4 5 6 6 7 8 5 7 8 8 10 11 11 8 8 9 6 7 7 7 10 8 7 11 8 3 6 8 9 8 9 8 5 4 5 6 7 5 5 4 4 4 5 5 5 5 4 5 5 4 5 5 5 5 5 5 6 6 6 6 6 7 6 6 5 5 6 4 5 5 5 6 6 6 6 5 6 6 6 7 7 7 7 7 7
4 5 7 -4 -6 9 12 9 5 3 4 4 5 4 6 6 6 10 6 6 6 5 7 9 10 8 9 9 9 9 7 6 10 11 8 9 8 5 5 8 10 9 9 10 7 4 4 7 7 6 5 4 5 4 5 4 4 5 4 5 4 5 5 5 5 5 5 6 5 6 6 5 5 6 5 5 4 5 6 5 4 5 5 5 4 5 6 6 5 5 5 5 5 5 5 5 5
3 8 6 -8 1 10 3 7 8 6 7 5 5 3 6 6 8 13 8 7 7 5 8 6 5 8 9 7 8 11 9 5 8 11 9 10 8 6 6 7 8 9 10 9 8 6 4 6 7 6 6 5 6 5 5 4 4 5 4 5 4 4 5 4 6 6 5 5 5 5 6 6 6 6 6 6 6 6 6 5 5 5 4 3 3 5 5 5 5 4 5 4 5 6 5 5 5
5 5 9 3 2 4 3 5 5 6 7 6 5 4 7 7 9 11 9 8 6 4 8 8 6 10 11 7 7 12 12 6 5 8 10 12 9 7 8 7 6 7 9 9 8 7 5 5 6 7 6 5 7 4 4 3 4 5 4 4 4 4 5 5 5 5 5 5 6 6 5 6 5 5 6 5 5 5 5 5 5 4 4 5 5 5 5 5 6 5 5 5 5 4 4 5 5
6 4 8 8 5 8 9 3 1 6 7 6 6 6 7 7 8 10 12 10 2 1 8 11 10 11 12 8 5 9 13 10 6 7 10 13 9 8 8 7 7 7 8 9 8 7 6 6 5 6 6 4 6 5 4 4 4 4 4 4 4 5 5 5 5 5 6 5 5 6 5 5 5 5 5 5 4 5 5 4 4 4 5 6 6 5 6 5 6 6 5 6 5 4 5 4 5
5 5 6 5 4 9 9 4 3 4 4 6 8 7 6 6 8 7 10 11 6 7 11 9 8 10 12 10 5 5 10 11 9 7 8 12 9 8 10 9 8 7 7 8 7 6 6 7 6 6 6 4 5 6 5 6 4 3 4 4 4 5 5 5 5 5 6 5 5 6 5 5 5 5 4 5 5 4 5 4 4 5 5 5 4 4 5 4 4 4 4 4 5 4 4 4 4
5 5 4 5 5 7 6 5 6 3 3 6 8 8 6 7 10 8 9 11 10 11 12 8 8 11 10 10 9 5 7 10 10 8 8 10 8 6 9 10 9 7 7 7 7 6 6 7 7 5 5 5 5 5 5 5 4 4 4 5 4 4 5 5 5 5 6 5 5 5 5 6 5 5 5 5 5 5 5 5 5 4 4 3 3 3 2 3 3 3 3 3 3 4 4 4 4
5 7 7 5 4 7 5 4 6 4 2 7 9 7 6 6 8 9 9 10 9 10 11 10 10 11 8 8 8 7 8 10 10 8 8 10 7 6 8 9 9 8 7 7 6 6 6 7 7 5 5 5 5 5 5 5 5 5 5 5 5 4 5 6 5 5 6 5 6 6 5 5 5 5 5 5 5 5 3 4 4 3 4 3 3 3 3 4 5 4 5 5 5 5 6 5 5
5 6 9 6 3 6 4 2 4 3 3 8 8 4 4 6 6 6 7 10 10 9 12 11 11 11 9 8 6 8 10 12 11 7 8 10 8 7 8 8 8 8 7 6 6 6 6 7 7 5 5 4 5 5 5 5 5 5 5 4 5 5 5 5 6 5 5 6 5 6 6 5 6 5 5 5 3 4 4 3 3 3 5 5 5 5 6 6 7 7 6 7 8 7 8 8 8
6 6 8 6 3 6 5 3 2 2 4 6 4 3 5 5 5 6 7 10 8 7 10 10 10 10 10 10 7 8 10 12 11 7 7 10 10 9 8 8 7 7 7 6 5 6 6 7 8 6 5 4 4 5 5 5 5 5 5 5 5 5 5 6 6 6 6 6 6 5 6 5 5 5 4 4 3 3 4 4 5 6 7 7 8 7 7 8 8 8 8 9 8 8 9 8 9
6 5 7 6 5 8 6 4 1 2 5 3 1 4 9 11 10 9 7 7 6 6 8 7 8 8 8 8 8 9 9 11 11 6 6 8 10 10 10 9 9 7 7 7 5 6 6 6 8 7 5 4 4 5 5 5 5 5 5 5 6 5 6 6 6 7 6 6 6 5 5 5 5 5 4 3 3 4 5 6 7 7 7 7 7 7 7 8 8 8 8 8 8 8 9 9 10
5 4 5 6 6 7 5 4 1 3 6 1 0 3 6 11 11 9 7 7 7 6 6 6 8 8 8 7 8 10 9 11 13 8 5 6 8 11 10 9 11 10 7 7 5 5 7 5 7 7 6 5 4 4 4 4 4 4 5 5 5 5 5 7 7 7 7 6 7 6 6 6 6 5 5 5 5 6 6 6 6 6 6 6 6 7 7 7 7 7 7 7 8 8 8 8 9
8 7 8 7 8 6 4 6 1 2 8 1 0 4 4 7 10 10 6 4 6 7 5 7 8 7 9 9 7 9 10 10 13 10 6 5 6 10 10 8 10 11 8 7 6 5 6 5 6 7 6 6 5 5 5 5 4 4 5 5 5 6 6 7 7 6 7 7 7 7 6 6 7 6 6 5 5 5 5 5 5 5 5 6 6 7 6 6 5 5 6 7 7 7 7 7 6
7 7 10 10 9 4 1 10 7 1 6 2 0 5 7 7 7 11 9 2 3 6 4 4 7 5 7 12 9 8 10 11 13 12 9 5 5 9 10 9 9 9 8 8 6 5 6 6 6 6 6 5 4 5 6 5 5 5 4 6 5 6 6 7 7 7 7 7 7 6 7 6 6 6 5 4 4 4 5 5 5 5 5 6 6 6 5 4 5 6 7 7 7 7 6 6 6
6 4 9 10 11 8 -1 8 13 5 2 1 2 4 4 1 4 15 15 5 2 4 5 4 4 2 3 8 10 12 10 9 12 13 12 9 6 8 11 10 9 8 8 9 6 4 6 6 7 7 5 5 4 4 6 5 5 5 5 6 6 6 7 7 6 7 6 6 7 6 6 6 4 4 3 3 4 5 5 6 6 7 7 6 5 5 4 4 6 7 7 7 6 7 7 7 8
5 1 6 7 9 11 3 3 12 13 5 -1 2 4 4 -2 -2 14 16 4 4 5 6 7 4 4 6 4 5 10 10 8 12 13 13 11 7 9 11 9 10 8 6 9 7 4 6 8 8 8 7 6 6 5 5 6 6 6 6 6 7 7 7 7 6 6 6 6 7 7 5 4 3 4 5 5 6 6 7 7 7 9 8 6 5 3 3 5 7 7 6 6 6 7 9 9 10
4 0 3 5 5 9 7 6 9 13 8 0 3 2 6 5 -8 5 15 7 8 5 4 9 4 4 8 7 5 6 9 9 11 12 12 11 7 9 11 9 10 9 7 8 7 4 5 9 9 9 9 7 7 7 7 7 7 7 7 7 7 8 8 8 7 6 6 7 6 6 4 3 5 6 7 8 8 8 8 8 8 10 9 6 4 2 3 6 6 5 5 5 5 7 7 6 6
4 2 3 4 5 3 2 5 2 8 14 6 6 1 4 14 3 3 9 4 7 1 1 8 3 6 9 6 6 4 6 9 10 12 12 11 6 7 11 9 10 10 7 8 7 4 5 7 9 9 9 9 8 8 7 7 8 7 8 9 8 8 9 8 7 7 6 7 6 5 4 5 7 8 8 9 9 10 9 8 8 10 8 5 3 2 4 6 4 4 4 5 6 6 6 5 5
4 2 6 4 6 4 0 8 -2 3 24 10 2 6 2 6 6 7 10 12 14 2 1 8 2 7 9 3 6 3 5 10 12 14 13 11 6 7 11 8 9 11 8 8 7 4 5 7 8 9 8 7 7 7 7 6 7 8 8 9 9 8 9 8 8 8 7 7 6 4 5 7 8 7 7 8 9 11 10 9 9 8 6 3 2 3 5 6 4 4 4 5 8 8 8 9 8
5 2 7 3 7 9 3 11 3 4 31 17 -4 1 -1 1 4 0 -1 8 17 5 -0 7 5 6 2 1 6 3 6 11 12 14 15 13 7 6 10 8 8 10 8 8 8 4 5 7 8 8 7 6 6 6 6 7 7 8 8 7 8 8 8 8 9 9 7 7 5 6 7 7 6 5 6 6 7 9 9 9 9 8 6 2 2 3 4 7 6 4 5 5 8 9 9 8 7
7 4 10 5 5 10 1 4 7 7 20 14 1 -1 -4 1 8 6 -1 2 18 15 4 4 7 8 2 1 6 4 5 8 9 13 15 14 9 7 9 8 7 8 9 9 8 6 5 7 8 8 7 5 5 5 5 7 7 7 8 7 7 8 8 8 8 8 8 6 6 9 9 5 3 3 4 4 5 6 7 8 8 7 5 2 2 3 5 9 6 2 3 6 8 9 7 5 5
8 7 11 8 3 8 5 0 3 4 4 0 -2 2 3 -1 -2 7 7 -1 4 5 3 6 5 5 6 3 3 6 6 3 8 13 14 14 10 8 9 9 8 6 7 8 7 8 6 6 7 6 7 5 5 6 6 7 7 7 7 7 8 8 8 8 7 7 7 7 9 10 7 2 2 3 3 3 4 4 5 6 6 5 4 3 4 4 6 7 4 1 4 7 10 9 5 5 6
8 7 8 9 6 6 5 -2 -3 7 17 18 6 -3 4 6 -4 -1 1 -4 1 2 -0 5 5 1 5 5 3 9 10 6 9 12 12 15 10 9 10 8 9 6 5 8 6 7 7 6 6 5 6 6 5 7 7 7 7 6 7 6 7 7 8 7 6 6 6 6 9 8 3 1 2 3 3 4 4 4 4 4 5 4 4 4 5 6 7 7 4 3 5 8 11 8 5 7 9
6 6 6 8 7 6 7 -1 -10 -6 2 14 20 9 3 5 1 5 7 1 8 18 13 3 2 2 0 4 7 9 13 10 9 10 11 15 12 9 11 9 9 7 5 6 6 7 7 5 5 5 5 6 7 7 7 7 6 6 7 6 6 6 7 7 6 6 6 5 6 5 2 1 3 3 3 4 4 6 6 5 4 4 4 4 5 6 7 7 6 4 6 11 11 6 7 10 11
6 8 7 7 7 5 8 5 -5 -9 -17 -15 6 16 19 17 4 5 18 17 7 11 23 12 -1 4 1 3 8 6 10 10 7 11 11 12 13 8 10 10 8 8 7 6 7 6 6 6 5 6 6 6 7 7 6 5 5 6 6 6 6 6 7 7 6 5 5 5 4 2 2 2 2 3 3 3 4 6 9 9 7 4 4 4 4 5 8 8 6 4 6 11 10 5 9 11 9
11 13 10 8 9 3 6 7 0 0 -2 -5 -3 -6 5 22 15 2 3 18 15 -1 19 28 4 1 5 5 8 4 6 9 4 9 10 9 11 8 8 10 8 9 8 6 7 6 6 6 5 6 8 8 7 6 5 4 5 5 5 6 6 6 7 6 6 5 4 4 2 2 3 2 1 2 2 2 2 4 9 13 11 7 5 5 4 5 7 8 7 5 6 11 9 7 10 9 5
15 15 12 7 8 6 5 6 4 4 6 10 8 -9 -13 4 21 19 -5 -5 5 -14 2 31 10 -1 8 7 8 5 3 9 5 6 10 9 11 9 8 9 8 8 8 7 6 6 6 6 5 6 7 8 7 6 5 4 4 5 4 6 6 5 6 6 5 5 5 4 2 2 3 2 2 1 1 2 1 1 5 10 13 12 8 6 5 5 6 8 7 5 7 10 8 8 10 7 4
13 11 10 9 11 11 5 5 6 4 4 4 6 2 -6 -6 10 24 9 -6 -6 -17 -6 20 9 2 13 9 5 6 4 9 8 5 7 9 11 10 9 9 8 7 7 7 6 5 6 6 5 6 6 8 8 6 5 4 4 5 5 6 6 5 5 5 5 5 5 5 3 3 3 2 1 1 1 1 -0 -1 0 4 9 13 13 9 6 6 6 8 8 5 7 9 8 9 9 5 3
10 8 9 11 15 15 7 8 3 -3 5 5 6 10 -1 -3 9 13 11 9 3 -5 -1 12 12 7 10 7 3 6 7 7 7 5 5 7 10 12 11 10 9 9 8 7 7 6 6 7 6 6 7 8 8 7 5 5 4 5 5 6 7 5 4 4 5 5 5 5 4 4 4 3 2 2 3 2 1 -0 -1 0 3 7 12 13 9 7 7 8 8 6 7 9 8 9 9 5 4
5 4 8 10 14 14 8 8 2 -3 7 8 8 10 -9 -11 10 13 14 17 10 4 1 7 15 10 9 11 4 4 8 7 7 6 4 7 9 12 14 13 10 10 9 9 8 7 7 7 7 6 8 9 9 8 7 6 6 5 6 7 8 7 5 4 4 5 5 6 6 5 5 6 4 2 3 4 4 3 -1 -1 0 3 8 12 11 10 8 7 8 6 7 9 8 9 8 4 4
4 2 3 9 10 10 11 11 6 3 10 12 11 5 -10 -8 6 9 17 19 11 10 7 11 17 10 13 16 4 3 9 6 6 6 4 5 7 10 12 13 12 10 9 9 9 9 8 8 8 8 8 8 8 8 7 7 6 6 6 7 9 8 6 5 4 4 5 6 7 7 6 7 6 4 3 4 7 5 2 0 0 2 5 9 11 11 9 7 8 7 7 9 8 9 8 5 5
3 3 1 8 9 5 10 10 6 8 9 11 14 4 -3 7 5 -0 11 16 17 24 19 18 17 4 7 15 4 3 8 4 5 7 5 5 6 8 9 12 13 11 9 9 8 9 9 9 9 8 8 8 8 7 7 6 5 5 6 6 7 8 7 6 4 3 4 4 6 7 8 9 8 6 4 5 8 6 3 3 2 1 3 6 9 12 10 8 7 6 7 9 9 9 8 6 5
3 4 1 5 11 8 8 9 7 13 14 10 13 10 9 15 11 9 16 10 8 20 17 17 21 6 -1 11 10 3 4 6 6 6 6 6 6 7 7 9 11 10 9 9 8 8 8 9 8 7 7 6 6 6 5 5 5 5 6 6 7 7 8 7 5 4 4 4 5 5 6 8 8 8 6 6 8 6 4 4 3 1 1 3 6 11 12 9 8 6 6 8 9 9 8 8 6
7 5 3 5 12 11 5 5 5 6 12 13 7 9 19 23 17 19 27 18 7 14 14 13 22 15 2 9 14 6 5 8 6 6 8 7 7 8 7 8 9 9 9 9 9 9 7 7 7 7 7 5 5 5 5 5 5 5 6 6 7 7 7 8 7 6 4 4 6 6 5 5 6 7 7 7 8 6 4 4 3 2 1 1 3 8 12 12 9 7 6 7 9 9 8 9 8
8 4 6 8 7 10 7 4 6 3 4 10 4 2 17 24 18 16 21 23 22 22 16 11 18 19 9 8 11 7 9 13 8 7 7 5 6 7 6 7 8 8 8 8 8 8 6 5 5 5 6 5 5 6 6 7 6 6 6 6 6 7 7 8 9 8 5 4 5 6 6 6 5 5 7 8 8 6 3 3 4 3 0 0 1 3 9 13 12 8 6 6 8 9 8 9 9
6 2 3 10 7 7 11 6 7 9 4 7 8 2 3 5 11 19 17 17 27 28 17 12 16 18 13 9 6 3 6 11 10 5 3 3 6 8 8 8 7 7 8 7 7 7 6 5 5 5 6 6 7 7 8 8 8 7 7 6 5 6 6 7 8 8 8 7 6 5 6 6 5 5 5 6 7 6 3 3 4 3 0 0 1 1 5 11 14 10 7 6 7 9 8 8 9
4 5 -3 4 9 5 10 11 7 8 6 4 8 9 10 4 2 12 16 14 22 25 14 7 10 14 16 11 6 6 3 4 8 5 2 6 8 8 10 9 8 8 7 7 7 7 7 6 6 5 6 6 6 7 8 8 8 8 7 7 7 7 7 8 8 9 9 9 9 7 7 7 7 6 5 5 5 6 4 3 3 3 2 1 1 1 2 7 13 13 8 6 6 8 9 8 8
-0 7 3 -2 4 2 3 10 9 8 6 3 4 11 24 29 18 12 16 16 15 18 15 11 11 13 13 9 6 9 6 2 5 6 5 6 6 6 8 7 7 8 7 7 7 7 8 8 7 7 6 7 7 7 7 7 8 8 7 7 7 7 7 7 7 8 9 10 10 10 9 9 9 9 8 6 5 5 5 4 3 4 4 1 0 1 1 4 11 14 11 7 5 7 9 8 8
2 3 8 2 1 2 -1 1 7 9 8 6 2 -10 -8 16 32 25 19 22 17 12 11 11 15 16 9 5 6 7 8 4 3 6 6 6 7 6 5 5 6 8 9 10 10 10 10 9 9 9 8 8 8 7 7 6 6 6 6 6 6 5 5 6 6 6 6 7 8 8 9 8 9 9 9 9 7 5 5 5 4 5 5 2 0 1 2 3 8 13 13 9 6 6 8 9 8
Height
5894 5893 5893 5892 5892 5892 5893 5892 5892 5892 5892 5892 5892 5892 5893 5895 5895 5896 5896 5896 5896 5897 5898 5898 5898 5898 5898 5898 5897 5898 5898 5899 5899 5898 5898 5898 5899 5899 5899 5899 5899 5899 5899 5899 5900 5900 5901 5901 5901 5901 5901 5901 5901 5901 5901 5901 5902 5902 5902 5903 5903 5903 5904 5905 5905 5904 5904 5904 5904 5904 5905 5905 5905 5905 5905 5905 5905 5905 5905 5906 5906 5906 5907 5907 5907 5908 5908 5908 5908 5908 5908 5909 5909 5910 5911 5911 5911
5895 5895 5894 5894 5894 5894 5894 5894 5893 5893 5893 5893 5893 5893 5894 5895 5895 5896 5897 5897 5897 5898 5899 5899 5899 5898 5899 5899 5898 5898 5899 5899 5900 5899 5900 5900 5900 5899 5899 5900 5900 5900 5900 5900 5901 5901 5902 5902 5902 5902 5902 5902 5902 5902 5902 5903 5903 5903 5903 5903 5904 5904 5905 5905 5905 5905 5905 5905 5905 5905 5905 5906 5906 5906 5906 5906 5906 5906 5906 5907 5907 5907 5907 5908 5908 5909 5909 5909 5908 5908 5909 5910 5911 5912 5912 5912 5912
5896 5896 5896 5896 5896 5896 5896 5895 5894 5895 5894 5894 5894 5894 5895 5896 5895 5896 5898 5898 5898 5899 5900 5900 5899 5899 5900 5900 5899 5899 5900 5899 5900 5900 5900 5900 5901 5900 5900 5900 5900 5901 5901 5901 5902 5902 5902 5902 5902 5902 5902 5902 5903 5903 5903 5903 5904 5904 5904 5904 5905 5905 5906 5906 5905 5905 5905 5905 5906 5906 5906 5906 5906 5907 5907 5907 5907 5907 5907 5908 5908 5908 5908 5909 5909 5909 5909 5910 5910 5910 5910 5911 5912 5913 5913 5914 5914
5896 5897 5897 5897 5897 5897 5897 5896 5896 5895 5896 5896 5896 5896 5897 5896 5896 5897 5898 5898 5899 5900 5900 5900 5900 5900 5901 5901 5900 5901 5901 5901 5900 5901 5901 5901 5902 5902 5901 5901 5901 5901 5902 5902 5903 5903 5903 5903 5903 5903 5903 5903 5904 5904 5904 5905 5905 5904 5905 5905 5906 5906 5906 5906 5906 5906 5906 5906 5906 5906 5906 5907 5907 5907 5907 5908 5908 5908 5908 5908 5909 5909 5909 5909 5910 5910 5910 5911 5911 5911 5912 5913 5914 5914 5915 5915 5915
5897 5897 5898 5898 5898 5899 5898 5897 5897 5896 5897 5898 5898 5898 5899 5898 5898 5898 5899 5900 5900 5901 5901 5901 5901 5901 5902 5902 5901 5901 5902 5902 5902 5902 5902 5902 5903 5903 5903 5902 5902 5902 5902 5903 5903 5904 5904 5904 5904 5904 5904 5904 5905 5905 5906 5906 5905 5905 5905 5906 5906 5907 5906 5906 5906 5906 5906 5906 5906 5907 5907 5907 5908 5908 5908 5908 5909 5909 5909 5909 5909 5910 5910 5910 5911 5911 5912 5912 5912 5913 5913 5914 5915 5915 5916 5916 5916
5897 5898 5899 5900 5900 5900 5899 5898 5897 5898 5899 5899 5900 5900 5900 5900 5900 5900 5901 5901 5901 5901 5901 5901 5902 5902 5903 5902 5901 5901 5902 5902 5902 5903 5903 5903 5903 5904 5903 5903 5903 5903 5903 5904 5904 5905 5905 5904 5904 5904 5905 5905 5906 5906 5907 5906 5906 5906 5907 5907 5907 5907 5907 5907 5907 5907 5907 5907 5907 5907 5908 5908 5908 5909 5909 5909 5909 5910 5910 5910 5910 5911 5911 5911 5912 5912 5913 5913 5914 5914 5914 5915 5916 5916 5917 5917 5917
5898 5900 5901 5901 5901 5900 5900 5899 5898 5900 5901 5901 5901 5901 5901 5901 5902 5901 5902 5902 5902 5902 5902 5902 5902 5902 5903 5903 5902 5902 5902 5903 5903 5903 5904 5904 5904 5905 5904 5904 5904 5904 5904 5904 5905 5905 5905 5905 5905 5905 5906 5906 5907 5907 5907 5907 5907 5907 5908 5908 5908 5908 5908 5908 5908 5907 5907 5907 5908 5908 5909 5909 5909 5910 5910 5910 5910 5911 5911 5911 5911 5912 5912 5912 5913 5913 5914 5914 5915 5915 5915 5916 5916 5917 5917 5918 5918
5898 5900 5901 5901 5902 5901 5900 5899 5900 5901 5902 5901 5902 5902 5902 5902 5902 5902 5902 5902 5902 5902 5902 5902 5902 5902 5903 5903 5903 5903 5903 5903 5904 5904 5904 5905 5905 5906 5906 5905 5905 5905 5905 5905 5906 5906 5906 5906 5906 5906 5906 5907 5908 5908 5908 5908 5908 5908 5909 5909 5909 5909 5909 5909 5908 5908 5908 5908 5908 5909 5909 5910 5910 5911 5911 5911 5911 5912 5912 5912 5913 5913 5913 5913 5914 5914 5915 5915 5916 5916 5916 5917 5917 5918 5918 5918 5918
5898 5899 5899 5900 5901 5900 5900 5901 5902 5902 5901 5901 5902 5902 5902 5902 5903 5903 5903 5903 5903 5903 5903 5902 5902 5902 5903 5904 5903 5903 5903 5903 5904 5905 5905 5905 5906 5906 5906 5906 5906 5906 5907 5906 5906 5907 5907 5907 5907 5907 5907 5908 5908 5909 5908 5909 5909 5910 5910 5910 5910 5910 5910 5910 5910 5909 5909 5909 5909 5910 5910 5911 5911 5911 5912 5912 5912 5913 5913 5914 5914 5914 5914 5915 5915 5916 5916 5916 5917 5917 5918 5918 5918 5919 5919 5919 5919
5899 5899 5899 5899 5899 5900 5901 5903 5903 5902 5901 5902 5902 5902 5903 5903 5903 5903 5903 5903 5903 5903 5903 5902 5902 5902 5903 5903 5904 5903 5903 5904 5904 5905 5905 5906 5907 5907 5907 5907 5907 5907 5907 5907 5907 5907 5907 5908 5908 5908 5908 5909 5909 5909 5909 5910 5910 5911 5911 5912 5911 5911 5911 5911 5911 5910 5910 5910 5910 5911 5911 5912 5912 5912 5913 5913 5914 5914 5914 5915 5915 5915 5916 5916 5917 5917 5917 5918 5918 5918 5918 5919 5919 5919 5919 5919 5919
5900 5900 5899 5899 5899 5900 5902 5905 5904 5903 5902 5902 5902 5902 5903 5903 5903 5903 5904 5903 5903 5903 5903 5903 5903 5902 5903 5903 5904 5904 5904 5904 5905 5905 5906 5907 5907 5907 5907 5907 5907 5907 5908 5908 5908 5908 5908 5908 5908 5909 5909 5909 5910 5910 5910 5911 5911 5912 5913 5913 5913 5913 5913 5913 5912 5911 5911 5911 5912 5912 5912 5912 5913 5913 5914 5914 5915 5915 5915 5916 5916 5916 5917 5917 5918 5918 5918 5919 5919 5919 5919 5919 5919 5920 5920 5920 5920
5900 5900 5900 5899 5899 5900 5903 5905 5904 5903 5903 5902 5902 5902 5903 5903 5903 5903 5904 5904 5904 5904 5903 5904 5904 5903 5904 5904 5904 5904 5904 5905 5905 5906 5906 5907 5907 5907 5907 5907 5908 5908 5908 5908 5909 5909 5909 5909 5909 5909 5910 5910 5910 5911 5911 5912 5913 5913 5914 5914 5914 5914 5914 5914 5913 5913 5912 5913 5913 5913 5913 5913 5914 5914 5915 5915 5916 5916 5916 5917 5917 5917 5918 5918 5919 5919 5919 5919 5919 5919 5920 5920 5920 5920 5920 5920 5920
5900 5900 5900 5900 5900 5901 5904 5905 5904 5904 5903 5902 5902 5902 5903 5903 5903 5903 5904 5904 5904 5904 5903 5904 5904 5903 5904 5904 5904 5904 5904 5905 5905 5906 5906 5907 5907 5908 5908 5908 5908 5908 5908 5909 5909 5909 5909 5909 5910 5910 5910 5911 5911 5912 5912 5913 5914 5914 5915 5915 5915 5915 5915 5915 5915 5914 5914 5914 5914 5914 5915 5915 5915 5915 5916 5916 5917 5917 5917 5918 5918 5918 5919 5919 5919 5920 5920 5920 5920 5920 5920 5920 5921 5921 5921 5921 5921
5900 5901 5901 5902 5901 5901 5905 5905 5904 5903 5902 5902 5902 5902 5903 5903 5903 5903 5904 5904 5904 5903 5903 5903 5903 5903 5903 5903 5904 5904 5905 5905 5906 5906 5906 5907 5907 5908 5908 5908 5909 5909 5909 5909 5909 5909 5910 5910 5910 5911 5911 5912 5912 5913 5914 5914 5915 5916 5916 5916 5917 5917 5917 5917 5916 5916 5916 5916 5916 5916 5916 5916 5917 5917 5917 5918 5918 5918 5919 5919 5919 5920 5920 5920 5920 5921 5921 5921 5921 5921 5921 5921 5921 5921 5921 5921 5921
5900 5901 5901 5902 5901 5901 5904 5904 5904 5902 5902 5902 5902 5902 5903 5903 5903 5903 5903 5903 5903 5903 5903 5903 5903 5903 5903 5903 5904 5904 5905 5905 5906 5907 5907 5907 5907 5908 5908 5909 5909 5910 5910 5910 5910 5910 5910 5911 5911 5911 5912 5913 5914 5914 5915 5916 5916 5917 5917 5917 5918 5918 5918 5918 5918 5917 5917 5918 5918 5918 5918 5918 5918 5919 5919 5919 5919 5920 5920 5920 5921 5921 5921 5921 5921 5922 5922 5922 5922 5922 5922 5922 5922 5922 5922 5922 5921
5900 5901 5901 5901 5901 5901 5902 5903 5904 5902 5901 5902 5902 5902 5903 5903 5903 5903 5903 5903 5903 5903 5904 5904 5904 5904 5904 5904 5904 5904 5905 5905 5906 5907 5907 5907 5907 5908 5908 5909 5910 5910 5911 5911 5910 5911 5911 5912 5912 5913 5913 5914 5915 5916 5916 5917 5917 5918 5918 5919 5919 5919 5919 5919 5919 5919 5919 5920 5920 5920 5920 5920 5920 5920 5921 5921 5921 5921 5922 5922 5922 5923 5923 5923 5923 5923 5923 5923 5923 5923 5923 5923 5923 5923 5923 5923 5922
5900 5900 5901 5901 5900 5900 5900 5901 5903 5902 5901 5902 5902 5902 5903 5903 5903 5904 5904 5904 5904 5904 5904 5904 5904 5904 5904 5904 5904 5904 5905 5905 5906 5907 5907 5907 5907 5907 5908 5909 5910 5911 5911 5911 5911 5911 5912 5913 5913 5914 5915 5916 5916 5917 5918 5918 5918 5919 5919 5920 5920 5921 5921 5921 5921 5921 5921 5921 5922 5922 5922 5922 5922 5922 5923 5923 5923 5923 5923 5923 5924 5924 5924 5924 5924 5924 5924 5924 5925 5925 5925 5925 5925 5924 5924 5924 5924
5899 5900 5901 5901 5899 5899 5899 5899 5902 5902 5901 5901 5901 5902 5902 5903 5903 5904 5904 5904 5904 5904 5904 5904 5904 5904 5904 5904 5904 5905 5905 5905 5906 5906 5907 5907 5907 5907 5908 5909 5910 5910 5911 5911 5911 5912 5912 5913 5914 5915 5916 5917 5918 5918 5919 5919 5920 5920 5921 5921 5922 5922 5922 5922 5922 5922 5923 5923 5923 5923 5924 5924 5924 5924 5925 5925 5925 5925 5925 5925 5925 5926 5926 5926 5925 5926 5926 5926 5926 5926 5926 5926 5926 5926 5925 5925 5925
5898 5899 5900 5900 5899 5899 5899 5900 5901 5902 5901 5901 5901 5902 5902 5903 5903 5904 5904 5904 5904 5904 5904 5904 5904 5904 5904 5904 5904 5905 5905 5905 5906 5906 5907 5907 5907 5908 5908 5909 5910 5910 5911 5911 5912 5912 5913 5914 5915 5917 5917 5918 5918 5919 5920 5920 5921 5922 5922 5922 5923 5923 5923 5924 5924 5924 5924 5924 5925 5925 5925 5926 5926 5926 5927 5927 5927 5926 5926 5926 5927 5927 5927 5927 5927 5927 5927 5927 5927 5928 5928 5928 5928 5927 5927 5927 5926
5898 5898 5899 5899 5898 5897 5898 5900 5901 5902 5902 5902 5901 5902 5902 5902 5903 5904 5904 5904 5904 5904 5904 5904 5904 5904 5903 5903 5904 5904 5904 5905 5905 5906 5906 5907 5907 5908 5908 5909 5910 5910 5911 5912 5912 5913 5914 5915 5916 5917 5918 5919 5919 5920 5921 5921 5922 5923 5923 5924 5924 5924 5925 5925 5925 5925 5926 5926 5926 5926 5926 5927 5927 5927 5928 5928 5928 5928 5928 5928 5928 5928 5929 5928 5928 5928 5928 5928 5928 5929 5929 5929 5929 5929 5929 5928 5928
5897 5898 5899 5899 5897 5896 5898 5900 5901 5902 5902 5902 5901 5902 5901 5901 5903 5904 5904 5904 5904 5904 5904 5904 5904 5903 5903 5903 5903 5903 5904 5904 5905 5905 5905 5906 5907 5907 5908 5909 5910 5910 5911 5912 5913 5913 5914 5915 5916 5917 5918 5919 5919 5920 5921 5922 5923 5924 5924 5925 5925 5926 5926 5926 5927 5927 5927 5928 5928 5928 5928 5928 5928 5929 5929 5929 5929 5930 5930 5930 5930 5930 5930 5930 5929 5929 5929 5929 5929 5930 5931 5931 5931 5931 5930 5929 5928
5896 5897 5898 5898 5897 5897 5899 5899 5901 5901 5901 5901 5901 5902 5901 5902 5903 5904 5904 5904 5904 5903 5903 5903 5903 5903 5903 5903 5903 5903 5903 5904 5905 5905 5905 5906 5906 5907 5908 5909 5909 5910 5911 5912 5913 5913 5914 5916 5917 5918 5919 5919 5920 5921 5922 5923 5924 5925 5925 5926 5926 5927 5927 5928 5928 5928 5929 5929 5929 5929 5930 5930 5930 5930 5931 5931 5931 5931 5931 5931 5931 5932 5932 5932 5931 5931 5931 5930 5930 5931 5931 5932 5931 5932 5931 5930 5929
5895 5896 5897 5897 5897 5897 5899 5899 5900 5901 5901 5901 5901 5902 5902 5903 5903 5904 5904 5904 5903 5903 5903 5903 5903 5903 5903 5903 5902 5903 5903 5904 5904 5904 5905 5905 5906 5907 5907 5908 5909 5910 5911 5912 5913 5914 5915 5916 5917 5918 5919 5920 5921 5922 5923 5924 5925 5926 5926 5927 5928 5928 5928 5929 5929 5930 5930 5930 5930 5931 5931 5931 5931 5931 5932 5932 5932 5932 5932 5932 5933 5933 5933 5932 5932 5933 5932 5932 5931 5931 5931 5932 5932 5932 5932 5931 5931
5894 5895 5896 5897 5897 5898 5898 5898 5899 5900 5900 5901 5901 5902 5902 5903 5904 5904 5904 5904 5903 5903 5903 5903 5902 5903 5903 5902 5902 5902 5903 5903 5904 5904 5905 5905 5905 5906 5907 5908 5909 5910 5911 5912 5913 5915 5916 5916 5918 5919 5920 5921 5922 5922 5923 5925 5926 5926 5927 5928 5929 5929 5929 5930 5930 5931 5931 5931 5932 5932 5932 5932 5932 5932 5933 5933 5933 5933 5933 5934 5934 5934 5934 5933 5933 5934 5934 5933 5933 5933 5933 5933 5933 5932 5932 5932 5932
5893 5894 5895 5896 5896 5897 5897 5897 5898 5899 5900 5901 5901 5902 5903 5903 5904 5904 5904 5904 5903 5903 5903 5902 5902 5903 5903 5902 5901 5902 5902 5903 5904 5904 5904 5905 5905 5906 5907 5908 5909 5910 5911 5912 5913 5915 5916 5917 5918 5919 5920 5921 5922 5923 5924 5925 5926 5927 5928 5929 5929 5930 5930 5931 5931 5932 5932 5933 5933 5933 5933 5934 5934 5934 5934 5934 5934 5934 5935 5935 5935 5935 5934 5934 5934 5934 5934 5934 5934 5935 5935 5934 5934 5934 5933 5933 5933
5892 5893 5894 5895 5896 5897 5897 5898 5898 5899 5900 5901 5901 5902 5903 5903 5904 5904 5903 5903 5903 5903 5903 5902 5902 5902 5902 5902 5901 5901 5902 5902 5903 5904 5904 5905 5905 5906 5907 5908 5909 5910 5911 5912 5913 5915 5916 5917 5919 5920 5921 5922 5923 5924 5925 5926 5926 5927 5929 5930 5930 5931 5931 5932 5932 5933 5933 5934 5934 5934 5935 5935 5935 5935 5935 5935 5935 5935 5936 5936 5936 5935 5935 5935 5935 5935 5935 5935 5935 5936 5935 5935 5935 5935 5935 5934 5934
5891 5892 5893 5895 5896 5897 5897 5898 5898 5898 5900 5901 5901 5902 5902 5903 5903 5904 5903 5903 5903 5902 5902 5902 5902 5902 5902 5902 5901 5901 5901 5901 5903 5903 5904 5904 5905 5905 5907 5908 5909 5910 5911 5912 5913 5915 5916 5917 5919 5920 5921 5922 5923 5925 5925 5927 5927 5928 5930 5930 5931 5932 5932 5933 5933 5934 5934 5935 5935 5935 5936 5936 5936 5936 5936 5936 5936 5936 5936 5936 5936 5936 5936 5936 5936 5936 5936 5936 5936 5936 5936 5936 5935 5935 5935 5935 5934
5890 5891 5892 5894 5895 5896 5897 5898 5898 5899 5900 5900 5901 5901 5902 5902 5903 5903 5903 5903 5902 5902 5902 5902 5902 5902 5902 5901 5901 5901 5901 5901 5902 5903 5904 5904 5905 5906 5906 5907 5908 5910 5911 5912 5913 5915 5916 5917 5919 5920 5921 5923 5924 5925 5926 5927 5928 5929 5930 5931 5932 5932 5933 5934 5934 5934 5935 5935 5936 5936 5937 5937 5937 5937 5937 5937 5937 5937 5937 5937 5937 5937 5937 5937 5937 5937 5937 5936 5936 5936 5936 5936 5936 5936 5935 5935 5935
5889 5890 5891 5893 5894 5896 5897 5897 5898 5898 5899 5900 5901 5901 5901 5902 5902 5903 5902 5902 5902 5902 5902 5902 5901 5901 5901 5901 5901 5900 5900 5901 5901 5902 5903 5904 5905 5906 5906 5907 5908 5909 5911 5912 5913 5914 5916 5917 5919 5920 5922 5923 5924 5926 5927 5928 5929 5930 5931 5932 5932 5933 5934 5934 5935 5935 5935 5936 5937 5937 5937 5938 5938 5938 5938 5938 5938 5938 5938 5938 5938 5938 5938 5938 5938 5937 5937 5937 5937 5937 5936 5936 5936 5936 5935 5935 5935
5888 5889 5890 5892 5893 5895 5896 5897 5897 5898 5899 5900 5900 5900 5901 5901 5902 5902 5902 5901 5901 5902 5902 5901 5901 5901 5901 5901 5900 5900 5900 5900 5901 5901 5902 5904 5905 5906 5907 5907 5908 5909 5911 5912 5913 5914 5916 5917 5919 5921 5922 5924 5925 5926 5927 5928 5929 5930 5931 5932 5933 5934 5934 5935 5935 5936 5936 5937 5937 5938 5938 5938 5939 5939 5939 5939 5939 5939 5939 5939 5939 5939 5939 5939 5939 5938 5938 5938 5938 5938 5937 5937 5936 5936 5935 5935 5935
5887 5888 5889 5890 5892 5894 5896 5896 5897 5897 5898 5899 5900 5900 5901 5901 5901 5901 5901 5901 5901 5901 5901 5901 5901 5900 5900 5900 5900 5900 5899 5899 5900 5901 5901 5903 5904 5905 5906 5907 5908 5910 5911 5912 5913 5914 5916 5917 5919 5921 5922 5924 5925 5927 5928 5929 5930 5931 5932 5933 5933 5934 5935 5935 5936 5936 5937 5937 5938 5938 5939 5939 5939 5939 5939 5940 5940 5940 5940 5940 5940 5940 5940 5940 5939 5939 5939 5939 5939 5938 5938 5938 5937 5937 5936 5936 5935
5886 5886 5888 5890 5892 5893 5895 5895 5895 5895 5897 5898 5899 5899 5901 5901 5900 5899 5899 5899 5900 5900 5900 5900 5900 5900 5900 5900 5899 5899 5899 5899 5899 5900 5901 5902 5903 5905 5906 5907 5908 5910 5911 5912 5913 5915 5916 5917 5919 5920 5922 5924 5925 5927 5928 5929 5930 5931 5932 5933 5934 5934 5935 5936 5936 5937 5938 5938 5939 5939 5939 5940 5940 5940 5940 5940 5941 5941 5941 5941 5941 5941 5941 5940 5940 5940 5940 5940 5939 5939 5939 5939 5938 5938 5937 5937 5936
5884 5885 5887 5889 5891 5893 5894 5894 5894 5895 5896 5897 5898 5899 5900 5900 5898 5897 5898 5899 5899 5899 5898 5899 5899 5899 5899 5900 5899 5898 5898 5899 5899 5900 5901 5901 5903 5904 5905 5906 5908 5909 5911 5912 5914 5915 5916 5917 5919 5920 5922 5924 5925 5927 5928 5929 5930 5931 5932 5933 5934 5935 5935 5936 5937 5937 5938 5939 5939 5940 5940 5940 5940 5941 5941 5941 5941 5941 5941 5941 5941 5941 5941 5941 5941 5941 5941 5940 5940 5940 5940 5939 5939 5939 5938 5937 5936
5882 5884 5886 5888 5889 5891 5892 5893 5893 5894 5895 5896 5897 5898 5900 5899 5896 5896 5898 5898 5898 5897 5897 5898 5897 5898 5899 5899 5899 5897 5897 5898 5899 5900 5900 5901 5902 5903 5905 5906 5907 5909 5910 5912 5914 5915 5916 5918 5919 5920 5922 5924 5925 5927 5928 5929 5930 5931 5932 5933 5934 5935 5936 5936 5937 5938 5939 5939 5940 5941 5941 5941 5941 5942 5942 5942 5942 5942 5942 5942 5941 5941 5941 5941 5941 5941 5941 5941 5941 5941 5940 5940 5940 5939 5938 5937 5936
5881 5882 5885 5887 5888 5890 5891 5893 5893 5894 5894 5895 5895 5897 5898 5898 5896 5896 5897 5897 5897 5897 5897 5897 5896 5897 5898 5898 5898 5898 5896 5896 5897 5899 5900 5901 5902 5903 5904 5905 5907 5908 5910 5912 5914 5915 5917 5918 5919 5920 5922 5924 5925 5926 5928 5929 5930 5931 5932 5933 5934 5935 5936 5937 5937 5938 5939 5940 5940 5941 5941 5942 5942 5942 5942 5942 5942 5942 5942 5942 5942 5942 5942 5942 5942 5942 5942 5941 5941 5941 5941 5941 5940 5939 5938 5937 5937
5880 5881 5883 5885 5887 5889 5890 5892 5894 5892 5893 5894 5894 5895 5896 5897 5896 5895 5896 5895 5896 5897 5897 5896 5895 5895 5897 5897 5897 5898 5897 5895 5895 5897 5898 5900 5902 5903 5904 5905 5906 5908 5910 5911 5913 5915 5917 5919 5920 5921 5922 5923 5925 5926 5928 5929 5930 5931 5932 5933 5934 5935 5936 5937 5938 5938 5939 5940 5941 5941 5942 5942 5942 5942 5943 5942 5942 5942 5942 5942 5942 5942 5942 5942 5942 5943 5942 5942 5941 5941 5941 5941 5941 5940 5939 5938 5937
5877 5879 5881 5883 5885 5887 5888 5891 5893 5891 5891 5893 5893 5894 5895 5896 5895 5895 5895 5894 5895 5896 5895 5896 5895 5895 5896 5897 5896 5896 5897 5895 5894 5895 5897 5899 5900 5902 5903 5904 5906 5908 5909 5911 5913 5915 5917 5918 5920 5920 5921 5923 5924 5925 5927 5928 5929 5930 5931 5932 5934 5935 5936 5937 5937 5938 5939 5940 5941 5941 5942 5942 5943 5943 5943 5943 5943 5943 5942 5942 5942 5942 5942 5943 5943 5943 5943 5942 5942 5941 5941 5941 5941 5940 5939 5938 5938
5874 5876 5878 5880 5882 5885 5886 5889 5890 5888 5889 5891 5891 5893 5893 5894 5896 5897 5896 5893 5893 5895 5894 5895 5894 5894 5896 5897 5895 5894 5896 5896 5894 5893 5895 5897 5899 5901 5902 5904 5905 5907 5909 5910 5912 5914 5915 5918 5919 5920 5921 5922 5923 5924 5926 5927 5928 5930 5931 5932 5933 5934 5936 5936 5937 5938 5939 5940 5941 5941 5942 5942 5943 5943 5943 5943 5943 5943 5943 5942 5943 5943 5943 5943 5943 5943 5943 5943 5942 5942 5941 5941 5941 5940 5939 5939 5938
5871 5873 5875 5878 5880 5883 5884 5886 5888 5887 5887 5888 5889 5890 5892 5894 5897 5898 5896 5893 5892 5893 5893 5893 5893 5894 5894 5894 5893 5893 5896 5897 5893 5891 5893 5896 5898 5900 5901 5903 5904 5906 5908 5909 5911 5913 5914 5917 5918 5919 5920 5921 5922 5923 5925 5926 5928 5929 5930 5932 5933 5934 5935 5936 5937 5938 5939 5940 5940 5941 5942 5942 5943 5943 5943 5943 5943 5943 5943 5943 5943 5943 5943 5943 5943 5943 5943 5943 5942 5942 5942 5941 5940 5939 5939 5939 5938
5867 5869 5872 5875 5878 5880 5882 5884 5886 5886 5885 5886 5888 5888 5890 5892 5893 5893 5893 5893 5893 5891 5891 5891 5891 5893 5893 5891 5891 5893 5897 5896 5892 5890 5891 5895 5897 5899 5901 5902 5903 5905 5907 5909 5910 5912 5914 5916 5917 5919 5920 5920 5921 5923 5924 5926 5927 5928 5930 5931 5932 5934 5935 5936 5936 5937 5938 5939 5940 5941 5942 5942 5943 5943 5943 5943 5943 5943 5943 5943 5943 5943 5943 5944 5944 5944 5943 5943 5942 5942 5942 5941 5940 5939 5938 5938 5938
5863 5866 5869 5872 5875 5876 5879 5882 5884 5885 5883 5883 5884 5884 5884 5887 5889 5891 5891 5891 5891 5889 5889 5890 5890 5891 5892 5891 5891 5893 5895 5893 5890 5888 5890 5894 5896 5898 5900 5901 5903 5904 5906 5908 5910 5911 5913 5914 5916 5917 5919 5920 5921 5922 5923 5925 5926 5928 5929 5930 5932 5933 5934 5935 5936 5937 5938 5939 5940 5941 5942 5943 5943 5943 5943 5944 5944 5943 5943 5943 5943 5943 5943 5944 5944 5944 5944 5943 5943 5943 5942 5941 5940 5939 5938 5938 5937
5860 5862 5866 5869 5871 5873 5875 5879 5882 5883 5880 5878 5881 5880 5880 5884 5886 5888 5888 5888 5889 5887 5887 5889 5889 5888 5889 5890 5891 5892 5892 5890 5888 5888 5890 5893 5895 5897 5899 5901 5902 5903 5904 5907 5908 5910 5911 5913 5914 5916 5918 5919 5920 5922 5923 5924 5926 5927 5928 5929 5930 5932 5933 5934 5936 5937 5938 5939 5940 5941 5942 5942 5943 5943 5943 5944 5944 5944 5943 5943 5944 5944 5943 5944 5944 5944 5944 5944 5944 5944 5943 5942 5941 5940 5939 5938 5937
5856 5859 5863 5865 5866 5868 5870 5873 5877 5877 5876 5876 5878 5877 5878 5882 5883 5884 5886 5886 5887 5887 5885 5886 5888 5887 5887 5887 5887 5889 5890 5889 5888 5887 5889 5893 5895 5897 5899 5901 5902 5903 5904 5905 5907 5909 5911 5912 5914 5915 5917 5919 5920 5922 5923 5924 5925 5926 5927 5928 5929 5931 5933 5934 5935 5936 5938 5939 5940 5941 5941 5942 5943 5943 5943 5944 5944 5944 5944 5944 5944 5944 5944 5944 5944 5944 5944 5945 5944 5944 5943 5942 5941 5940 5939 5938 5938
5853 5856 5859 5860 5862 5864 5866 5869 5870 5870 5872 5873 5875 5876 5876 5878 5879 5882 5883 5883 5887 5886 5882 5883 5886 5886 5886 5886 5885 5887 5888 5888 5888 5887 5888 5892 5895 5896 5898 5900 5901 5902 5903 5905 5906 5908 5910 5912 5914 5915 5917 5918 5920 5921 5923 5923 5924 5925 5926 5928 5929 5931 5932 5933 5935 5936 5937 5938 5939 5940 5941 5942 5942 5943 5943 5944 5944 5944 5944 5943 5944 5944 5944 5944 5944 5944 5944 5944 5944 5944 5943 5942 5941 5940 5940 5939 5938
5851 5853 5855 5857 5859 5861 5863 5865 5865 5866 5868 5867 5870 5873 5873 5873 5876 5878 5879 5881 5885 5883 5879 5880 5884 5885 5885 5885 5885 5885 5885 5886 5887 5887 5889 5892 5894 5895 5896 5898 5900 5901 5903 5904 5906 5907 5909 5911 5913 5915 5916 5918 5919 5921 5922 5923 5923 5924 5925 5927 5929 5930 5931 5933 5934 5935 5936 5937 5938 5939 5940 5941 5942 5943 5943 5944 5944 5944 5944 5943 5943 5943 5944 5944 5944 5944 5944 5944 5944 5944 5943 5942 5942 5941 5940 5939 5939
5849 5850 5852 5854 5855 5857 5860 5860 5862 5863 5862 5862 5866 5869 5868 5869 5873 5875 5875 5877 5880 5879 5877 5879 5882 5883 5884 5884 5884 5885 5886 5887 5887 5888 5891 5892 5893 5894 5895 5896 5898 5900 5902 5904 5905 5906 5908 5910 5912 5914 5916 5918 5919 5920 5921 5922 5923 5924 5925 5927 5928 5929 5931 5932 5933 5934 5935 5936 5937 5938 5939 5940 5941 5942 5943 5943 5943 5944 5944 5943 5943 5943 5943 5943 5943 5944 5944 5944 5943 5943 5943 5943 5942 5941 5940 5940 5939
5846 5846 5847 5849 5851 5854 5856 5857 5860 5859 5855 5857 5864 5866 5866 5866 5870 5872 5873 5874 5875 5875 5876 5878 5879 5880 5882 5884 5883 5884 5886 5887 5887 5889 5891 5893 5893 5894 5895 5896 5898 5900 5901 5903 5905 5907 5908 5910 5912 5914 5916 5917 5919 5920 5921 5922 5923 5924 5925 5926 5928 5929 5930 5931 5932 5933 5934 5935 5936 5937 5938 5939 5941 5941 5942 5943 5943 5943 5943 5943 5943 5943 5943 5943 5943 5943 5943 5943 5943 5943 5942 5942 5942 5942 5941 5940 5940
5841 5842 5843 5845 5848 5851 5852 5853 5854 5851 5849 5855 5861 5863 5863 5861 5865 5870 5871 5873 5873 5873 5874 5875 5877 5878 5881 5883 5881 5882 5885 5887 5888 5889 5891 5892 5893 5894 5896 5897 5899 5900 5902 5904 5905 5907 5908 5910 5911 5913 5915 5917 5918 5919 5920 5921 5923 5924 5925 5926 5927 5929 5930 5931 5932 5933 5933 5934 5935 5936 5938 5939 5940 5940 5941 5942 5942 5943 5943 5943 5943 5942 5942 5942 5942 5943 5943 5943 5943 5942 5942 5942 5942 5942 5942 5941 5940
5836 5837 5839 5841 5845 5846 5847 5848 5848 5847 5849 5854 5858 5859 5858 5858 5863 5868 5870 5871 5871 5871 5872 5873 5875 5876 5879 5881 5879 5879 5883 5885 5887 5888 5889 5891 5892 5894 5896 5897 5899 5900 5902 5904 5905 5906 5908 5910 5911 5912 5914 5916 5917 5919 5920 5921 5922 5923 5924 5925 5927 5928 5929 5930 5931 5932 5933 5934 5935 5936 5937 5938 5939 5939 5940 5941 5941 5942 5942 5942 5942 5942 5942 5941 5941 5942 5942 5943 5943 5942 5942 5942 5942 5942 5942 5941 5941
5832 5833 5835 5837 5840 5841 5843 5845 5845 5847 5849 5852 5856 5856 5854 5857 5862 5864 5867 5869 5869 5869 5871 5872 5874 5874 5875 5879 5878 5878 5881 5884 5886 5887 5888 5890 5891 5893 5895 5896 5898 5899 5901 5902 5903 5905 5907 5908 5910 5911 5913 5915 5916 5918 5919 5920 5921 5922 5923 5924 5926 5928 5928 5929 5930 5931 5932 5933 5934 5935 5935 5937 5937 5938 5939 5939 5940 5941 5941 5942 5942 5941 5941 5941 5941 5941 5941 5942 5942 5942 5942 5941 5941 5941 5942 5941 5941
5829 5831 5833 5835 5838 5839 5841 5844 5845 5847 5849 5850 5851 5851 5852 5857 5860 5860 5864 5866 5866 5868 5870 5870 5872 5871 5871 5875 5876 5876 5880 5882 5884 5886 5887 5889 5891 5892 5893 5894 5896 5898 5899 5900 5902 5904 5905 5907 5909 5910 5912 5913 5915 5916 5918 5919 5920 5921 5922 5923 5925 5926 5927 5928 5929 5930 5931 5932 5933 5934 5935 5936 5936 5937 5938 5938 5939 5940 5940 5941 5941 5941 5940 5940 5940 5940 5940 5941 5941 5941 5941 5941 5941 5941 5941 5942 5941
5827 5829 5830 5833 5837 5839 5841 5842 5844 5846 5847 5847 5846 5847 5852 5855 5856 5857 5861 5863 5864 5867 5868 5867 5870 5870 5868 5872 5875 5875 5877 5880 5882 5884 5886 5888 5889 5891 5892 5893 5895 5896 5898 5899 5901 5903 5904 5906 5907 5908 5910 5912 5913 5915 5916 5918 5919 5920 5921 5922 5924 5925 5926 5927 5928 5929 5930 5931 5932 5933 5934 5935 5935 5936 5937 5937 5938 5939 5939 5939 5940 5940 5940 5939 5939 5939 5940 5940 5940 5940 5940 5940 5940 5941 5941 5941 5941
5824 5825 5828 5833 5837 5837 5837 5839 5841 5843 5844 5845 5845 5846 5850 5852 5852 5854 5857 5860 5861 5864 5865 5865 5867 5868 5866 5870 5874 5874 5876 5878 5881 5883 5885 5886 5888 5889 5891 5892 5893 5895 5897 5899 5901 5902 5903 5904 5905 5907 5909 5910 5912 5914 5915 5916 5918 5919 5920 5921 5923 5924 5925 5926 5927 5928 5929 5930 5931 5932 5933 5933 5934 5935 5935 5936 5937 5937 5938 5938 5938 5939 5939 5938 5938 5938 5939 5939 5939 5939 5939 5939 5939 5940 5940 5941 5941
5820 5822 5827 5832 5832 5831 5833 5836 5838 5839 5841 5843 5844 5845 5847 5848 5850 5852 5854 5856 5858 5859 5862 5863 5864 5865 5865 5868 5872 5874 5875 5876 5879 5882 5883 5885 5887 5888 5890 5891 5893 5894 5896 5898 5899 5900 5901 5903 5904 5906 5908 5910 5911 5912 5914 5915 5917 5918 5919 5921 5922 5923 5924 5925 5926 5927 5928 5929 5930 5931 5932 5932 5933 5934 5934 5935 5935 5936 5936 5937 5937 5937 5937 5937 5937 5937 5937 5937 5937 5937 5938 5938 5938 5938 5939 5940 5940
5815 5819 5823 5825 5824 5827 5830 5832 5834 5836 5838 5839 5842 5844 5845 5846 5848 5850 5851 5853 5854 5855 5858 5859 5860 5861 5863 5866 5869 5872 5874 5874 5877 5880 5882 5883 5885 5887 5889 5891 5892 5893 5895 5896 5897 5898 5900 5902 5903 5905 5907 5908 5909 5911 5913 5914 5916 5917 5918 5919 5921 5922 5923 5924 5925 5926 5927 5928 5929 5930 5930 5931 5932 5933 5933 5934 5934 5934 5935 5935 5935 5936 5936 5936 5936 5936 5936 5936 5936 5936 5936 5937 5937 5937 5938 5939 5939
5810 5812 5815 5817 5820 5824 5826 5829 5832 5834 5835 5838 5840 5842 5843 5845 5847 5848 5849 5850 5851 5852 5854 5856 5857 5859 5862 5865 5867 5869 5871 5873 5876 5878 5880 5882 5884 5886 5888 5890 5891 5892 5893 5894 5895 5897 5899 5900 5902 5904 5905 5906 5908 5910 5912 5913 5915 5916 5917 5919 5920 5921 5922 5923 5924 5925 5926 5927 5927 5928 5929 5930 5930 5931 5932 5932 5933 5933 5933 5934 5934 5934 5934 5934 5935 5935 5935 5935 5935 5935 5935 5935 5936 5936 5937 5937 5938
5804 5806 5807 5812 5816 5819 5822 5824 5827 5830 5833 5836 5839 5842 5844 5843 5843 5845 5846 5847 5848 5850 5851 5853 5855 5857 5860 5863 5865 5867 5869 5872 5875 5877 5879 5881 5883 5884 5886 5887 5889 5890 5891 5893 5895 5896 5898 5899 5901 5902 5904 5905 5907 5909 5911 5912 5913 5915 5916 5917 5919 5919 5921 5921 5922 5923 5924 5925 5926 5926 5927 5928 5929 5929 5930 5931 5931 5931 5932 5932 5932 5933 5933 5933 5933 5933 5933 5933 5933 5933 5933 5934 5935 5935 5936 5936 5937
5800 5803 5805 5808 5812 5816 5818 5819 5822 5826 5830 5833 5836 5841 5842 5839 5839 5842 5844 5845 5846 5847 5849 5850 5852 5854 5857 5860 5863 5865 5868 5871 5873 5874 5876 5878 5881 5882 5883 5885 5886 5888 5890 5892 5893 5895 5896 5898 5900 5901 5903 5905 5906 5908 5909 5910 5911 5913 5915 5916 5917 5918 5919 5920 5921 5922 5922 5923 5924 5924 5925 5926 5927 5928 5928 5929 5929 5930 5930 5930 5931 5931 5931 5931 5931 5931 5932 5932 5932 5931 5932 5932 5933 5934 5934 5935 5935